| time (UTC) | temp F | wind direction | speed MPH | gust MPH | rain 1hr in | rain 24hr in | rain mn in | humidity % | barometer mb |
| 20260506231307 | 50 | 48 | 2.0 | 3.0 | 0.00 | 0.38 | 0.38 | 99 | 1009.6 |
| 20260506230804 | 50 | 350 | 3.0 | 3.0 | 0.00 | 0.38 | 0.38 | 99 | 1009.4 |
| 20260506230301 | 50 | 65 | 3.0 | 7.0 | 0.00 | 0.38 | 0.38 | 99 | 1009.3 |
| 20260506225757 | 50 | 50 | 2.0 | 3.0 | 0.00 | 0.38 | 0.38 | 99 | 1009.4 |
| 20260506225254 | 50 | 16 | 0.0 | 2.0 | 0.00 | 0.38 | 0.38 | 99 | 1009.3 |
| 20260506224745 | 50 | 20 | 0.0 | 1.0 | 0.07 | 0.38 | 0.38 | 99 | 1009.3 |
| 20260506224242 | 51 | 34 | 1.0 | 3.0 | 0.07 | 0.38 | 0.38 | 99 | 1009.2 |
| 20260506223738 | 51 | 6 | 1.0 | 3.0 | 0.00 | 0.37 | 0.37 | 98 | 1008.9 |
| 20260506223234 | 51 | 35 | 4.0 | 4.0 | 0.00 | 0.37 | 0.37 | 98 | 1008.7 |
| 20260506222731 | 52 | 48 | 2.0 | 6.0 | 0.07 | 0.37 | 0.37 | 97 | 1008.5 |
| 20260506222226 | 53 | 19 | 1.0 | 6.0 | 0.00 | 0.36 | 0.36 | 97 | 1008.6 |
| 20260506221725 | 53 | 8 | 5.0 | 10.0 | 0.00 | 0.36 | 0.36 | 97 | 1008.2 |
| 20260506221223 | 54 | 348 | 3.0 | 8.0 | 0.00 | 0.36 | 0.36 | 97 | 1008.3 |
| 20260506220720 | 54 | 332 | 6.0 | 14.0 | 0.00 | 0.36 | 0.36 | 97 | 1008.1 |
| 20260506220214 | 54 | 330 | 7.0 | 9.0 | 0.00 | 0.36 | 0.36 | 97 | 1007.9 |
| 20260506215711 | 54 | 335 | 8.0 | 9.0 | 0.00 | 0.36 | 0.36 | 97 | 1008.1 |
| 20260506215206 | 54 | 303 | 6.0 | 8.0 | 0.00 | 0.36 | 0.36 | 97 | 1007.6 |
| 20260506214658 | 54 | 344 | 5.0 | 16.0 | 0.00 | 0.36 | 0.36 | 97 | 1007.4 |
| 20260506214155 | 54 | 351 | 9.0 | 14.0 | 0.00 | 0.36 | 0.36 | 98 | 1007.5 |
| 20260506213654 | 54 | 344 | 4.0 | 10.0 | 0.05 | 0.36 | 0.36 | 98 | 1007.4 |
| 20260506213150 | 55 | 347 | 6.0 | 13.0 | 0.24 | 0.36 | 0.36 | 98 | 1007.2 |
| 20260506212647 | 55 | 341 | 11.0 | 15.0 | 0.35 | 0.34 | 0.34 | 97 | 1007.1 |
| 20260506212142 | 57 | 155 | 2.0 | 6.0 | 0.24 | 0.32 | 0.32 | 97 | 1007.0 |
| 20260506211638 | 59 | 344 | 5.0 | 11.0 | 0.00 | 0.28 | 0.28 | 98 | 1006.4 |
| 20260506211135 | 62 | 340 | 6.0 | 7.0 | 0.00 | 0.28 | 0.28 | 99 | 1006.6 |
| 20260506210632 | 62 | 10 | 0.0 | 0.0 | 0.00 | 0.28 | 0.28 | 99 | 1005.9 |
| 20260506210129 | 62 | 2 | 1.0 | 2.0 | 0.00 | 0.28 | 0.28 | 99 | 1005.8 |
| 20260506205626 | 62 | 194 | 2.0 | 3.0 | 0.00 | 0.28 | 0.28 | 99 | 1006.0 |
| 20260506205120 | 62 | 94 | 2.0 | 4.0 | 0.00 | 0.28 | 0.28 | 99 | 1006.0 |
| 20260506204619 | 62 | 32 | 1.0 | 3.0 | 0.00 | 0.28 | 0.28 | 99 | 1006.1 |
| 20260506204115 | 62 | 75 | 1.0 | 7.0 | 0.00 | 0.28 | 0.28 | 99 | 1006.3 |
| 20260506203614 | 62 | 11 | 0.0 | 3.0 | 0.00 | 0.28 | 0.28 | 99 | 1006.1 |
| 20260506203110 | 63 | 123 | 2.0 | 3.0 | 0.00 | 0.28 | 0.28 | 99 | 1006.0 |
| 20260506202608 | 63 | 125 | 3.0 | 4.0 | 0.00 | 0.28 | 0.28 | 99 | 1006.0 |
| 20260506202104 | 63 | 122 | 2.0 | 3.0 | 0.00 | 0.28 | 0.28 | 99 | 1006.0 |
| 20260506201601 | 63 | 40 | 1.0 | 3.0 | 0.00 | 0.28 | 0.28 | 99 | 1006.0 |
| 20260506201058 | 63 | 21 | 0.0 | 6.0 | 0.00 | 0.28 | 0.28 | 99 | 1006.1 |
| 20260506200554 | 63 | 52 | 0.0 | 2.0 | 0.00 | 0.28 | 0.28 | 99 | 1006.0 |
| 20260506200051 | 63 | 170 | 2.0 | 4.0 | 0.00 | 0.28 | 0.28 | 99 | 1006.2 |
| 20260506195547 | 62 | 30 | 0.0 | 0.0 | 0.00 | 0.28 | 0.28 | 99 | 1006.2 |
| 20260506195044 | 62 | 43 | 1.0 | 1.0 | 0.00 | 0.28 | 0.28 | 99 | 1006.4 |
| 20260506194542 | 62 | 164 | 3.0 | 4.0 | 0.00 | 0.28 | 0.28 | 99 | 1006.5 |
| 20260506194038 | 62 | 54 | 1.0 | 2.0 | 0.00 | 0.28 | 0.28 | 99 | 1006.4 |
| 20260506193536 | 62 | 86 | 2.0 | 6.0 | 0.00 | 0.28 | 0.28 | 99 | 1006.5 |
| 20260506193032 | 62 | 74 | 2.0 | 4.0 | 0.00 | 0.28 | 0.28 | 99 | 1006.5 |
| 20260506192529 | 62 | 357 | 0.0 | 3.0 | 0.00 | 0.28 | 0.28 | 99 | 1006.4 |
| 20260506192025 | 62 | 40 | 1.0 | 3.0 | 0.00 | 0.28 | 0.28 | 99 | 1006.7 |
| 20260506191522 | 62 | 81 | 1.0 | 3.0 | 0.00 | 0.28 | 0.28 | 99 | 1006.5 |
| 20260506191018 | 62 | 151 | 2.0 | 4.0 | 0.00 | 0.28 | 0.28 | 99 | 1006.5 |
| 20260506190515 | 62 | 235 | 2.0 | 4.0 | 0.05 | 0.28 | 0.28 | 99 | 1006.6 |
| 20260506190012 | 62 | 328 | 0.0 | 1.0 | 0.05 | 0.28 | 0.28 | 99 | 1006.4 |
| 20260506185510 | 62 | 42 | 1.0 | 3.0 | 0.00 | 0.27 | 0.27 | 99 | 1006.5 |
| 20260506185006 | 62 | 168 | 4.0 | 8.0 | 0.00 | 0.27 | 0.27 | 99 | 1006.7 |
| 20260506184503 | 62 | 109 | 2.0 | 4.0 | 0.07 | 0.27 | 0.27 | 99 | 1006.7 |
| 20260506184000 | 62 | 129 | 2.0 | 3.0 | 0.07 | 0.27 | 0.27 | 99 | 1006.6 |
| 20260506183456 | 62 | 206 | 1.0 | 4.0 | 0.00 | 0.26 | 0.26 | 99 | 1006.8 |
| 20260506182953 | 62 | 211 | 2.0 | 4.0 | 0.00 | 0.26 | 0.26 | 99 | 1006.8 |
| 20260506182450 | 62 | 25 | 1.0 | 1.0 | 0.00 | 0.26 | 0.26 | 99 | 1006.6 |
| 20260506181947 | 61 | 195 | 2.0 | 6.0 | 0.05 | 0.26 | 0.26 | 99 | 1006.6 |
| 20260506181445 | 61 | 306 | 1.0 | 3.0 | 0.05 | 0.26 | 0.26 | 99 | 1006.8 |
| 20260506180941 | 61 | 104 | 3.0 | 8.0 | 0.07 | 0.25 | 0.25 | 99 | 1006.9 |
| 20260506180437 | 61 | 203 | 1.0 | 3.0 | 0.07 | 0.25 | 0.25 | 99 | 1006.8 |
| 20260506175929 | 61 | 181 | 2.0 | 3.0 | 0.07 | 0.24 | 0.24 | 99 | 1007.0 |
| 20260506175426 | 61 | 71 | 0.0 | 0.0 | 0.00 | 0.23 | 0.23 | 99 | 1007.0 |
| 20260506174923 | 61 | 353 | 1.0 | 2.0 | 0.00 | 0.23 | 0.23 | 99 | 1007.0 |
| 20260506174421 | 61 | 190 | 1.0 | 4.0 | 0.00 | 0.23 | 0.23 | 99 | 1007.0 |
| 20260506173917 | 61 | 155 | 2.0 | 6.0 | 0.05 | 0.23 | 0.23 | 99 | 1006.9 |
| 20260506173414 | 61 | 74 | 2.0 | 3.0 | 0.05 | 0.23 | 0.23 | 99 | 1006.9 |
| 20260506172911 | 61 | 13 | 2.0 | 7.0 | 0.00 | 0.22 | 0.22 | 99 | 1007.0 |
| 20260506172408 | 61 | 142 | 3.0 | 6.0 | 0.00 | 0.22 | 0.22 | 99 | 1006.9 |
| 20260506171905 | 61 | 184 | 4.0 | 9.0 | 0.07 | 0.22 | 0.22 | 99 | 1006.9 |
| 20260506171402 | 61 | 123 | 2.0 | 7.0 | 0.00 | 0.21 | 0.21 | 99 | 1007.0 |
| 20260506170900 | 61 | 21 | 0.0 | 2.0 | 0.05 | 0.21 | 0.21 | 99 | 1007.0 |
| 20260506170355 | 60 | 68 | 2.0 | 3.0 | 0.00 | 0.20 | 0.20 | 99 | 1007.1 |
| 20260506165849 | 60 | 168 | 2.0 | 6.0 | 0.00 | 0.20 | 0.20 | 99 | 1007.2 |
| 20260506165347 | 60 | 177 | 2.0 | 7.0 | 0.07 | 0.20 | 0.20 | 99 | 1007.3 |
| 20260506164843 | 60 | 11 | 0.0 | 3.0 | 0.12 | 0.20 | 0.20 | 99 | 1007.5 |
| 20260506164339 | 59 | 301 | 2.0 | 3.0 | 0.05 | 0.19 | 0.19 | 99 | 1007.5 |
| 20260506163838 | 58 | 16 | 0.0 | 2.0 | 0.07 | 0.18 | 0.18 | 99 | 1007.5 |
| 20260506163332 | 58 | 32 | 0.0 | 1.0 | 0.07 | 0.18 | 0.18 | 99 | 1007.6 |
| 20260506162827 | 58 | 10 | 0.0 | 0.0 | 0.00 | 0.17 | 0.17 | 99 | 1007.8 |
| 20260506162325 | 57 | 27 | 0.0 | 0.0 | 0.05 | 0.17 | 0.17 | 99 | 1007.7 |
| 20260506161823 | 57 | 14 | 0.0 | 0.0 | 0.12 | 0.17 | 0.17 | 99 | 1007.8 |
| 20260506161319 | 57 | 40 | 0.0 | 0.0 | 0.12 | 0.16 | 0.16 | 99 | 1007.9 |
| 20260506160812 | 56 | 43 | 0.0 | 0.0 | 0.05 | 0.15 | 0.15 | 99 | 1007.9 |
| 20260506160308 | 56 | 44 | 0.0 | 0.0 | 0.07 | 0.14 | 0.14 | 99 | 1008.0 |
| 20260506155807 | 56 | 31 | 0.0 | 1.0 | 0.05 | 0.13 | 0.13 | 99 | 1008.0 |
| 20260506155306 | 56 | 28 | 0.0 | 0.0 | 0.12 | 0.13 | 0.13 | 99 | 1008.3 |
| 20260506153416 | 57 | 7 | 0.0 | 0.0 | 0.12 | 0.10 | 0.10 | 99 | 1008.6 |
| 20260506152913 | 56 | 5 | 0.0 | 0.0 | 0.07 | 0.09 | 0.09 | 99 | 1008.6 |
| 20260506152410 | 56 | 12 | 0.0 | 0.0 | 0.00 | 0.08 | 0.08 | 98 | 1008.5 |
| 20260506151909 | 56 | 10 | 0.0 | 0.0 | 0.05 | 0.08 | 0.08 | 98 | 1008.5 |
| 20260506151405 | 56 | 11 | 0.0 | 0.0 | 0.00 | 0.07 | 0.07 | 98 | 1008.5 |
| 20260506150903 | 56 | 1 | 0.0 | 0.0 | 0.07 | 0.07 | 0.07 | 98 | 1008.5 |
| 20260506150359 | 56 | 0 | 0.0 | 0.0 | 0.07 | 0.07 | 0.07 | 98 | 1008.6 |
| 20260506145856 | 56 | 0 | 0.0 | 0.0 | 0.05 | 0.06 | 0.06 | 98 | 1008.9 |
| 20260506145352 | 56 | 359 | 0.0 | 0.0 | 0.05 | 0.06 | 0.06 | 98 | 1008.9 |
| 20260506144850 | 56 | 359 | 0.0 | 0.0 | 0.07 | 0.05 | 0.05 | 98 | 1009.0 |
| 20260506144346 | 56 | 359 | 0.0 | 0.0 | 0.07 | 0.05 | 0.05 | 97 | 1009.1 |
| 20260506143844 | 55 | 358 | 0.0 | 0.0 | 0.05 | 0.04 | 0.04 | 97 | 1009.0 |
| 20260506143341 | 56 | 358 | 0.0 | 0.0 | 0.12 | 0.04 | 0.04 | 97 | 1009.2 |
| 20260506142839 | 56 | 358 | 0.0 | 0.0 | 0.12 | 0.03 | 0.03 | 97 | 1009.4 |
| 20260506142337 | 56 | 358 | 0.0 | 0.0 | 0.05 | 0.02 | 0.02 | 97 | 1009.2 |
| 20260506141835 | 56 | 358 | 0.0 | 0.0 | 0.07 | 0.01 | 0.01 | 96 | 1009.3 |
| 20260506141333 | 56 | 356 | 0.0 | 0.0 | 0.07 | 0.01 | 0.01 | 96 | 1009.4 |
| 20260506140831 | 57 | 358 | 0.0 | 0.0 | 0.00 | 0.00 | 0.00 | 95 | 1009.4 |
| 20260506140327 | 57 | 358 | 0.0 | 0.0 | 0.00 | 0.00 | 0.00 | 95 | 1009.2 |
| 20260506135824 | 56 | 357 | 0.0 | 0.0 | 0.00 | 0.00 | 0.00 | 94 | 1009.2 |
| 20260506135321 | 56 | 358 | 0.0 | 0.0 | 0.00 | 0.00 | 0.00 | 94 | 1009.2 |
| 20260506134817 | 56 | 358 | 0.0 | 0.0 | 0.00 | 0.00 | 0.00 | 94 | 1009.3 |
| 20260506134314 | 56 | 358 | 0.0 | 0.0 | 0.00 | 0.00 | 0.00 | 94 | 1009.1 |
| 20260506133811 | 56 | 356 | 0.0 | 0.0 | 0.00 | 0.00 | 0.00 | 95 | 1009.0 |
| 20260506133308 | 57 | 351 | 0.0 | 0.0 | 0.00 | 0.00 | 0.00 | 95 | 1009.1 |
| 20260506132804 | 56 | 10 | 0.0 | 0.0 | 0.00 | 0.00 | 0.00 | 94 | 1009.3 |
| 20260506132302 | 56 | 11 | 0.0 | 0.0 | 0.00 | 0.00 | 0.00 | 93 | 1009.0 |
| 20260506131800 | 56 | 11 | 0.0 | 0.0 | 0.00 | 0.00 | 0.00 | 93 | 1008.9 |
| 20260506131255 | 56 | 1 | 0.0 | 0.0 | 0.00 | 0.00 | 0.00 | 93 | 1008.8 |
| 20260506130752 | 56 | 26 | 0.0 | 0.0 | 0.00 | 0.00 | 0.00 | 93 | 1008.9 |
| 20260506130249 | 56 | 11 | 0.0 | 0.0 | 0.00 | 0.00 | 0.00 | 94 | 1009.1 |
| 20260506125747 | 56 | 11 | 0.0 | 0.0 | 0.00 | 0.00 | 0.00 | 94 | 1009.1 |
| 20260506125245 | 56 | 12 | 0.0 | 0.0 | 0.00 | 0.00 | 0.00 | 94 | 1009.0 |
| 20260506124743 | 56 | 11 | 0.0 | 0.0 | 0.00 | 0.00 | 0.00 | 95 | 1009.0 |
| 20260506124240 | 55 | 9 | 0.0 | 0.0 | 0.00 | 0.00 | 0.00 | 95 | 1009.1 |
| 20260506123737 | 55 | 15 | 1.0 | 1.0 | 0.00 | 0.00 | 0.00 | 95 | 1009.2 |
| 20260506123237 | 55 | 358 | 0.0 | 1.0 | 0.00 | 0.00 | 0.00 | 96 | 1009.2 |
| 20260506122732 | 55 | 340 | 0.0 | 1.0 | 0.00 | 0.00 | 0.00 | 96 | 1009.5 |
| 20260506122230 | 55 | 353 | 2.0 | 4.0 | 0.00 | 0.00 | 0.00 | 97 | 1009.5 |
| 20260506121728 | 55 | 350 | 0.0 | 0.0 | 0.00 | 0.00 | 0.00 | 98 | 1009.9 |
| 20260506121225 | 54 | 343 | 2.0 | 2.0 | 0.00 | 0.00 | 0.00 | 98 | 1010.1 |
| 20260506120722 | 55 | 354 | 0.0 | 1.0 | 0.00 | 0.00 | 0.00 | 99 | 1010.0 |
| 20260506120219 | 54 | 334 | 0.0 | 3.0 | 0.00 | 0.00 | 0.00 | 99 | 1009.7 |
| 20260506115717 | 54 | 349 | 0.0 | 0.0 | 0.00 | 0.00 | 0.00 | 99 | 1009.7 |
| 20260506115215 | 54 | 339 | 3.0 | 4.0 | 0.00 | 0.00 | 0.00 | 99 | 1009.7 |
| 20260506114713 | 54 | 359 | 0.0 | 1.0 | 0.00 | 0.00 | 0.00 | 99 | 1009.7 |
| 20260506114210 | 54 | 2 | 0.0 | 0.0 | 0.00 | 0.00 | 0.00 | 99 | 1009.6 |
| 20260506113708 | 54 | 2 | 0.0 | 0.0 | 0.00 | 0.00 | 0.00 | 99 | 1009.5 |
| 20260506113205 | 53 | 1 | 0.0 | 1.0 | 0.00 | 0.00 | 0.00 | 99 | 1009.2 |
| 20260506112701 | 53 | 13 | 0.0 | 0.0 | 0.00 | 0.00 | 0.00 | 99 | 1009.4 |
| 20260506112159 | 53 | 13 | 0.0 | 0.0 | 0.00 | 0.00 | 0.00 | 99 | 1009.2 |
| 20260506111657 | 53 | 9 | 0.0 | 0.0 | 0.00 | 0.00 | 0.00 | 99 | 1009.0 |
| 20260506111154 | 53 | 8 | 0.0 | 0.0 | 0.00 | 0.00 | 0.00 | 99 | 1009.6 |
| 20260506110651 | 53 | 9 | 0.0 | 0.0 | 0.00 | 0.00 | 0.00 | 99 | 1009.3 |
| 20260506110149 | 53 | 9 | 0.0 | 0.0 | 0.00 | 0.00 | 0.00 | 99 | 1009.1 |
| 20260506105645 | 53 | 10 | 0.0 | 1.0 | 0.00 | 0.00 | 0.00 | 99 | 1008.9 |
| 20260506105142 | 53 | 356 | 2.0 | 2.0 | 0.00 | 0.00 | 0.00 | 99 | 1009.0 |
| 20260506104641 | 53 | 8 | 0.0 | 0.0 | 0.00 | 0.00 | 0.00 | 99 | 1009.5 |
| 20260506104138 | 53 | 8 | 0.0 | 0.0 | 0.00 | 0.00 | 0.00 | 99 | 1009.0 |
| 20260506103635 | 52 | 8 | 0.0 | 0.0 | 0.00 | 0.00 | 0.00 | 99 | 1009.2 |
| 20260506103132 | 52 | 5 | 0.0 | 0.0 | 0.00 | 0.00 | 0.00 | 99 | 1009.3 |
| 20260506102630 | 52 | 11 | 0.0 | 0.0 | 0.00 | 0.00 | 0.00 | 99 | 1009.2 |
| 20260506102127 | 52 | 11 | 0.0 | 0.0 | 0.00 | 0.00 | 0.00 | 99 | 1009.2 |
| 20260506101623 | 52 | 11 | 0.0 | 0.0 | 0.00 | 0.00 | 0.00 | 99 | 1008.8 |
| 20260506101120 | 52 | 10 | 0.0 | 0.0 | 0.00 | 0.00 | 0.00 | 99 | 1009.0 |
| 20260506100619 | 52 | 11 | 0.0 | 0.0 | 0.00 | 0.00 | 0.00 | 99 | 1008.9 |
| 20260506100116 | 52 | 10 | 0.0 | 0.0 | 0.00 | 0.00 | 0.00 | 99 | 1009.0 |
| 20260506095615 | 52 | 10 | 0.0 | 0.0 | 0.00 | 0.00 | 0.00 | 99 | 1009.0 |
| 20260506095111 | 52 | 11 | 0.0 | 0.0 | 0.00 | 0.00 | 0.00 | 99 | 1008.9 |
| 20260506094609 | 52 | 11 | 0.0 | 0.0 | 0.00 | 0.00 | 0.00 | 99 | 1009.2 |
| 20260506094106 | 52 | 10 | 0.0 | 0.0 | 0.00 | 0.00 | 0.00 | 99 | 1009.1 |
| 20260506093605 | 52 | 10 | 0.0 | 0.0 | 0.00 | 0.00 | 0.00 | 99 | 1009.0 |
| 20260506093102 | 52 | 10 | 0.0 | 0.0 | 0.00 | 0.00 | 0.00 | 99 | 1009.0 |
| 20260506092559 | 52 | 10 | 0.0 | 0.0 | 0.00 | 0.00 | 0.00 | 99 | 1008.7 |
| 20260506092056 | 52 | 10 | 0.0 | 0.0 | 0.00 | 0.00 | 0.00 | 99 | 1008.7 |
| 20260506091554 | 51 | 10 | 0.0 | 0.0 | 0.00 | 0.00 | 0.00 | 99 | 1008.6 |
| 20260506091052 | 52 | 10 | 0.0 | 0.0 | 0.00 | 0.00 | 0.00 | 99 | 1008.9 |
| 20260506090549 | 52 | 10 | 0.0 | 0.0 | 0.00 | 0.00 | 0.00 | 99 | 1009.0 |
| 20260506090045 | 52 | 10 | 0.0 | 0.0 | 0.00 | 0.00 | 0.00 | 99 | 1009.0 |
| 20260506085542 | 52 | 10 | 0.0 | 0.0 | 0.00 | 0.00 | 0.00 | 99 | 1009.0 |
| 20260506085038 | 52 | 10 | 0.0 | 0.0 | 0.00 | 0.00 | 0.00 | 99 | 1008.9 |
| 20260506084536 | 53 | 10 | 0.0 | 0.0 | 0.00 | 0.00 | 0.00 | 99 | 1009.1 |
| 20260506084032 | 52 | 10 | 0.0 | 0.0 | 0.00 | 0.00 | 0.00 | 99 | 1009.3 |
| 20260506083529 | 53 | 10 | 0.0 | 0.0 | 0.00 | 0.00 | 0.00 | 99 | 1009.4 |
| 20260506083026 | 52 | 10 | 0.0 | 0.0 | 0.00 | 0.00 | 0.00 | 99 | 1009.3 |
| 20260506082523 | 53 | 10 | 0.0 | 0.0 | 0.00 | 0.00 | 0.00 | 99 | 1009.5 |
| 20260506082019 | 53 | 10 | 0.0 | 0.0 | 0.00 | 0.00 | 0.00 | 98 | 1009.5 |
| 20260506081517 | 53 | 10 | 0.0 | 1.0 | 0.00 | 0.00 | 0.00 | 98 | 1009.4 |
| 20260506081014 | 53 | 10 | 0.0 | 0.0 | 0.00 | 0.00 | 0.00 | 98 | 1009.7 |
| 20260506080512 | 53 | 10 | 0.0 | 0.0 | 0.00 | 0.00 | 0.00 | 98 | 1009.4 |
| 20260506073455 | 54 | 11 | 0.0 | 0.0 | 0.00 | 0.00 | 0.00 | 97 | 1009.9 |
| 20260506072952 | 54 | 10 | 0.0 | 0.0 | 0.00 | 0.00 | 0.00 | 97 | 1009.8 |
| 20260506072449 | 54 | 10 | 0.0 | 0.0 | 0.00 | 0.00 | 0.00 | 97 | 1010.1 |
| 20260506071947 | 54 | 11 | 0.0 | 0.0 | 0.00 | 0.00 | 0.00 | 97 | 1010.0 |
| 20260506071445 | 54 | 11 | 0.0 | 0.0 | 0.00 | 0.00 | 0.00 | 97 | 1010.0 |
| 20260506070942 | 54 | 11 | 0.0 | 0.0 | 0.00 | 0.00 | 0.00 | 96 | 1010.0 |
| 20260506070439 | 55 | 11 | 0.0 | 0.0 | 0.00 | 0.00 | 0.00 | 96 | 1010.0 |
| 20260506062416 | 55 | 359 | 0.0 | 0.0 | 0.00 | 0.00 | 0.00 | 94 | 1010.5 |
| 20260506061912 | 56 | 358 | 0.0 | 0.0 | 0.00 | 0.00 | 0.00 | 94 | 1010.5 |
| 20260506061409 | 56 | 359 | 0.0 | 0.0 | 0.00 | 0.00 | 0.00 | 92 | 1010.3 |
| 20260506060907 | 56 | 359 | 0.0 | 0.0 | 0.00 | 0.00 | 0.00 | 91 | 1010.5 |
| 20260506060404 | 56 | 359 | 0.0 | 0.0 | 0.00 | 0.00 | 0.00 | 90 | 1010.5 |
| 20260506051336 | 59 | 359 | 1.0 | 3.0 | 0.00 | 0.00 | 0.00 | 84 | 1010.8 |
| 20260506050834 | 58 | 330 | 3.0 | 4.0 | 0.00 | 0.00 | 0.00 | 85 | 1010.4 |
| 20260506050331 | 59 | 329 | 2.0 | 4.0 | 0.00 | 0.00 | 0.00 | 83 | 1010.5 |
| 20260506044822 | 59 | 355 | 1.0 | 2.0 | 0.00 | 0.00 | 0.00 | 84 | 1010.6 |
| 20260506044320 | 59 | 356 | 0.0 | 3.0 | 0.00 | 0.00 | 0.00 | 84 | 1010.5 |
| 20260506043816 | 59 | 4 | 2.0 | 4.0 | 0.00 | 0.00 | 0.00 | 85 | 1010.7 |
| 20260506043314 | 59 | 356 | 1.0 | 3.0 | 0.00 | 0.00 | 0.00 | 85 | 1010.5 |
| 20260506042812 | 59 | 352 | 4.0 | 8.0 | 0.00 | 0.00 | 0.00 | 85 | 1010.5 |
| 20260506042311 | 59 | 1 | 2.0 | 6.0 | 0.00 | 0.00 | 0.00 | 86 | 1010.5 |
| 20260506041809 | 59 | 344 | 6.0 | 8.0 | 0.00 | 0.00 | 0.00 | 88 | 1010.5 |
| 20260506041305 | 59 | 338 | 2.0 | 6.0 | 0.00 | 0.00 | 0.00 | 88 | 1010.4 |
| 20260506040803 | 59 | 326 | 4.0 | 7.0 | 0.00 | 0.00 | 0.00 | 88 | 1010.5 |
| 20260506040300 | 59 | 312 | 5.0 | 6.0 | 0.00 | 0.00 | 0.00 | 90 | 1010.4 |
| 20260506035756 | 59 | 334 | 5.0 | 8.0 | 0.00 | 0.08 | 0.08 | 93 | 1010.0 |
| 20260506035253 | 60 | 311 | 4.0 | 4.0 | 0.00 | 0.08 | 0.08 | 96 | 1010.0 |
| 20260506034750 | 60 | 347 | 2.0 | 6.0 | 0.00 | 0.08 | 0.08 | 98 | 1010.0 |
| 20260506034248 | 60 | 334 | 4.0 | 4.0 | 0.00 | 0.08 | 0.08 | 99 | 1010.2 |
| 20260506033744 | 60 | 343 | 1.0 | 6.0 | 0.00 | 0.08 | 0.08 | 99 | 1010.0 |
| 20260506033242 | 60 | 8 | 2.0 | 3.0 | 0.00 | 0.08 | 0.08 | 99 | 1009.8 |
| 20260506032738 | 60 | 35 | 0.0 | 0.0 | 0.00 | 0.08 | 0.08 | 99 | 1010.0 |
| 20260506032235 | 60 | 37 | 0.0 | 0.0 | 0.00 | 0.08 | 0.08 | 99 | 1009.5 |
| 20260506031732 | 60 | 17 | 1.0 | 2.0 | 0.00 | 0.08 | 0.08 | 99 | 1009.5 |
| 20260506031229 | 60 | 3 | 2.0 | 2.0 | 0.00 | 0.08 | 0.08 | 99 | 1009.3 |
| 20260506030728 | 60 | 345 | 2.0 | 2.0 | 0.00 | 0.08 | 0.08 | 99 | 1009.5 |
| 20260506030225 | 61 | 41 | 0.0 | 0.0 | 0.00 | 0.08 | 0.08 | 99 | 1009.4 |
| 20260506025722 | 61 | 42 | 1.0 | 2.0 | 0.05 | 0.08 | 0.08 | 99 | 1009.4 |
| 20260506025218 | 60 | 18 | 0.0 | 0.0 | 0.12 | 0.08 | 0.08 | 99 | 1009.7 |
| 20260506024715 | 60 | 359 | 0.0 | 0.0 | 0.07 | 0.07 | 0.07 | 99 | 1009.9 |
| 20260506024211 | 61 | 6 | 0.0 | 0.0 | 0.00 | 0.06 | 0.06 | 98 | 1010.2 |
| 20260506023708 | 61 | 21 | 0.0 | 0.0 | 0.00 | 0.06 | 0.06 | 98 | 1009.5 |
| 20260506023205 | 61 | 21 | 0.0 | 0.0 | 0.07 | 0.06 | 0.06 | 98 | 1009.3 |
| 20260506022702 | 61 | 21 | 0.0 | 0.0 | 0.19 | 0.06 | 0.06 | 97 | 1009.1 |
| 20260506022200 | 61 | 24 | 0.0 | 0.0 | 0.17 | 0.05 | 0.05 | 97 | 1009.3 |
| 20260506021657 | 61 | 14 | 0.0 | 0.0 | 0.07 | 0.02 | 0.02 | 97 | 1009.6 |
| 20260506021154 | 61 | 14 | 0.0 | 0.0 | 0.07 | 0.02 | 0.02 | 96 | 1009.4 |
| 20260506020651 | 61 | 20 | 0.0 | 0.0 | 0.00 | 0.01 | 0.01 | 95 | 1009.4 |
| 20260506020149 | 61 | 20 | 0.0 | 0.0 | 0.00 | 0.01 | 0.01 | 95 | 1009.2 |
| 20260506015646 | 61 | 20 | 0.0 | 0.0 | 0.00 | 0.01 | 0.01 | 94 | 1009.3 |
| 20260506015143 | 62 | 20 | 0.0 | 0.0 | 0.00 | 0.01 | 0.01 | 94 | 1009.2 |
| 20260506014635 | 62 | 20 | 0.0 | 0.0 | 0.00 | 0.01 | 0.01 | 93 | 1009.2 |
| 20260506014130 | 61 | 19 | 0.0 | 0.0 | 0.00 | 0.01 | 0.01 | 92 | 1009.3 |
| 20260506013629 | 61 | 19 | 0.0 | 0.0 | 0.00 | 0.01 | 0.01 | 92 | 1009.1 |
| 20260506013126 | 61 | 19 | 0.0 | 0.0 | 0.00 | 0.01 | 0.01 | 92 | 1009.5 |
| 20260506012622 | 62 | 20 | 0.0 | 0.0 | 0.00 | 0.01 | 0.01 | 92 | 1009.3 |
| 20260506012118 | 62 | 19 | 0.0 | 0.0 | 0.00 | 0.01 | 0.01 | 91 | 1009.1 |
| 20260506011616 | 62 | 33 | 0.0 | 0.0 | 0.00 | 0.01 | 0.01 | 91 | 1009.0 |
| 20260506011112 | 62 | 33 | 0.0 | 0.0 | 0.00 | 0.01 | 0.01 | 90 | 1009.2 |
| 20260506010611 | 62 | 33 | 0.0 | 0.0 | 0.00 | 0.01 | 0.01 | 89 | 1009.0 |
| 20260506005559 | 63 | 36 | 0.0 | 0.0 | 0.00 | 0.01 | 0.01 | 88 | 1008.8 |
| 20260506005055 | 63 | 36 | 0.0 | 0.0 | 0.00 | 0.01 | 0.01 | 89 | 1008.8 |
| 20260506004553 | 63 | 36 | 0.0 | 0.0 | 0.00 | 0.01 | 0.01 | 88 | 1008.8 |
| 20260506004049 | 63 | 38 | 0.0 | 1.0 | 0.00 | 0.01 | 0.01 | 87 | 1008.9 |
| 20260506003545 | 63 | 340 | 0.0 | 1.0 | 0.00 | 0.01 | 0.01 | 88 | 1008.9 |
| 20260506003042 | 64 | 339 | 0.0 | 1.0 | 0.00 | 0.01 | 0.01 | 87 | 1008.6 |
| 20260506002537 | 64 | 338 | 0.0 | 2.0 | 0.00 | 0.01 | 0.01 | 86 | 1008.5 |
| 20260506002033 | 64 | 11 | 1.0 | 1.0 | 0.00 | 0.01 | 0.01 | 84 | 1008.3 |
| 20260506001530 | 64 | 21 | 0.0 | 0.0 | 0.00 | 0.01 | 0.01 | 85 | 1008.2 |
| 20260506001022 | 64 | 348 | 0.0 | 1.0 | 0.00 | 0.01 | 0.01 | 85 | 1008.0 |
| 20260506000519 | 64 | 92 | 3.0 | 3.0 | 0.00 | 0.01 | 0.01 | 85 | 1008.0 |
| 20260506000017 | 64 | 39 | 0.0 | 0.0 | 0.00 | 0.01 | 0.01 | 86 | 1007.9 |
| 20260505235515 | 64 | 35 | 1.0 | 1.0 | 0.00 | 0.01 | 0.01 | 86 | 1008.1 |
| 20260505235011 | 64 | 34 | 0.0 | 0.0 | 0.00 | 0.01 | 0.01 | 87 | 1007.8 |
| 20260505234508 | 64 | 33 | 0.0 | 0.0 | 0.00 | 0.01 | 0.01 | 87 | 1008.0 |
| 20260505234005 | 64 | 33 | 0.0 | 1.0 | 0.00 | 0.01 | 0.01 | 87 | 1007.9 |
| 20260505233502 | 64 | 32 | 0.0 | 1.0 | 0.00 | 0.01 | 0.01 | 87 | 1007.8 |
| 20260505232959 | 64 | 9 | 0.0 | 0.0 | 0.00 | 0.01 | 0.01 | 85 | 1007.9 |
| 20260505232458 | 65 | 41 | 1.0 | 1.0 | 0.00 | 0.01 | 0.01 | 85 | 1007.8 |
| 20260505231954 | 65 | 26 | 0.0 | 0.0 | 0.00 | 0.01 | 0.01 | 84 | 1007.8 |